Location: Black Swamp Observatory
(41.3920°N, 84.1250°W)
Time: 18:45:55
(UTC-05:00)

ISS - Pass Details

Date: 04 December 2021
Orbit: 413 x 422 km, 51.6° (Epoch: 20 January)

Event Time Altitude Azimuth Distance (km) Brightness Sun altitude
Rises 17:59:14 0° 309° (NW) 2,386 0.5 -9.7°
Reaches altitude 10° 18:01:34 10° 322° (NW) 1,516 -0.7 -10.1°
Maximum altitude 18:04:31 27° 22° (NNE) 861 -2.5 -10.6°
Enters shadow 18:06:20 17° 69° (ENE) 1,153 -2.2 -10.9°
